Regional Weather Roundup
Issued by NWS

Home | Current Version | Previous Version | Graphics & Text | Print | Product List | Glossary On
Versions: 1 2 3 4 5 6 7 8 9 10 11 12 13 14 15 16 17 18 19 20 21 22 23 24 25 26 27 28 29 30 31 32 33 34 35 36 37 38 39 40 41 42 43 44 45 46 47 48 49 50
000
ASUS43 KFSD 250802
RWRSD

WEATHER ROUNDUP FOR SOUTH DAKOTA
NATIONAL WEATHER SERVICE SIOUX FALLS SD
300 AM CDT SUN SEP 25 2016

NOTE: "FAIR" INDICATES FEW OR NO CLOUDS BELOW 12,000 FEET WITH NO
SIGNIFICANT WEATHER AND/OR OBSTRUCTIONS TO VISIBILITY.


SDZ001>005-009-010-012>017-250900-
NORTHWEST AND NORTH CENTRAL SOUTH DAKOTA

CITY           SKY/WX    TMP DP  RH WIND       PRES   REMARKS
BUFFALO          N/A     50  46  86 NW33G44   29.99R
FAITH            N/A     52  46  80 NW31G41   29.99R
MOBRIDGE       CLOUDY    56  49  77 W32G41    29.78R
$$

SDZ012>016-024>037-041>051-057-063-072>074-250900-
SOUTHWEST AND SOUTH CENTRAL SOUTH DAKOTA

CITY           SKY/WX    TMP DP  RH WIND       PRES   REMARKS
RAPID CTY ARPT CLOUDY    54  40  59 NW25G37   30.13R
PIERRE         CLOUDY    57  46  66 W28G39    29.92R
CUSTER         CLOUDY    43  37  79 W16G29    30.19R
ELLSWORTH AFB  CLOUDY    54  42  63 NW35G43   30.10R
PHILIP         CLOUDY    56  44  64 NW23G35   30.06R
PINE RIDGE     PTCLDY    51  43  74 W15G26    30.17R
WINNER         PTSUNNY   57  44  62 W18G28    30.03R
$$

SDZ004>011-016>023-039-040-250900-
NORTHEAST SOUTH DAKOTA

CITY           SKY/WX    TMP DP  RH WIND       PRES   REMARKS
ABERDEEN       CLEAR     52  43  71 S12       29.83F
WATERTOWN      CLEAR     52  46  80 S5        29.91R
SISSETON         N/A     56  47  71 W8        29.83S
$$

SDZ017-020-022-023-036>040-048>070-250900-
SOUTHEAST SOUTH DAKOTA

CITY           SKY/WX    TMP DP  RH WIND       PRES   REMARKS
SIOUX FALLS    MOCLDY    58  48  69 W10       29.96R
HURON          CLEAR     54  43  66 SW10      29.92S
CHAMBERLAIN    PTCLDY    56  46  68 W14G21    29.99S
MITCHELL       CLEAR     55  44  66 W10       29.97R
YANKTON        CLEAR     55  46  71 W8        29.99R
$$

ABBREVIATIONS USED IN REMARKS
   TC - TEMPERATURE IN CELSIUS
  WCI - WIND CHILL INDEX
   HX - HEAT INDEX
  VSB - VISIBILITY




USA.gov is the U.S. government's official web portal to all federal, state and local government web resources and services.